This is the latest recevied weather packets stored in our database for station/object K0QED. If no packets are shown the sender has not sent any weather packets the latest 10 day(s).
| Time | Temp. | Humidity | Pressure | Rain* | Wind** | Luminosity | Snow |
|---|---|---|---|---|---|---|---|
| 1777214897 | 0° C | 99% | 1010.2 hPa | 0 mm | - | 60 W/m² | - |
| 1777214595 | 0° C | 99% | 1010.6 hPa | 0 mm | - | 46 W/m² | - |
| 1777214291 | 0° C | 99% | 1010.6 hPa | 0 mm | - | 36 W/m² | - |
| 1777213989 | 0° C | 99% | 1011.1 hPa | 0 mm | - | 35 W/m² | - |
| 1777213685 | 0° C | 99% | 1011 hPa | 0 mm | - | 38 W/m² | - |
| 1777213381 | 0° C | 99% | 1011 hPa | 0 mm | - | 42 W/m² | - |
| 1777213079 | 0° C | 99% | 1011.1 hPa | 0 mm | - | 43 W/m² | - |
| 1777212776 | 0° C | 99% | 1011.4 hPa | 0 mm | - | 53 W/m² | - |
| 1777212476 | 0° C | 99% | 1011.2 hPa | 0 mm | - | 71 W/m² | - |
| 1777212171 | 0° C | 99% | 1011.1 hPa | 0 mm | - | 61 W/m² | - |
| 1777211866 | 0° C | 99% | 1011.1 hPa | 0 mm | - | 46 W/m² | - |
| 1777211564 | 0° C | 99% | 1011.4 hPa | 0 mm | - | 34 W/m² | - |
| 1777211261 | 0° C | 99% | 1011 hPa | 0 mm | - | 32 W/m² | - |
| 1777210958 | 0° C | 99% | 1011 hPa | 0 mm | - | 32 W/m² | - |
| 1777210652 | 0° C | 99% | 1010.9 hPa | 0 mm | - | 29 W/m² | - |
| 1777210348 | -0.56° C | 99% | 1011.2 hPa | 0 mm | - | 26 W/m² | - |
| 1777210046 | -0.56° C | 99% | 1011.1 hPa | 0 mm | - | 22 W/m² | - |
| 1777209741 | 0° C | 99% | 1010.9 hPa | 0 mm | - | 22 W/m² | - |
| 1777209436 | 0° C | 99% | 1010.9 hPa | 0 mm | - | 21 W/m² | - |
| 1777209133 | 0° C | 99% | 1010.9 hPa | 0 mm | - | 20 W/m² | - |
| 1777208829 | -0.56° C | 99% | 1011.2 hPa | 0 mm | - | 18 W/m² | - |
| 1777208526 | -0.56° C | 99% | 1011.2 hPa | 0 mm | - | 18 W/m² | - |
| 1777208222 | -0.56° C | 99% | 1011.4 hPa | 0 mm | - | 15 W/m² | - |
| 1777207918 | -0.56° C | 99% | 1011 hPa | 0 mm | - | 12 W/m² | - |
| 1777207613 | -0.56° C | 99% | 1011.2 hPa | 0 mm | - | 8 W/m² | - |
* Rain latest hour (hover to see other rain measurements)
** Current wind speed in m/s (hover to see current wind gust speed)